Flag for Germany Weather past 2 weeks in Bornheim (Rheinland), North Rhine-Westphalia, Germany

Now
47 °F

Overcast.


Feels Like: 41 °F
Forecast: 42 / 50 °F
Wind: 13 mph from Southwest

Location: Bonn-Hangelar

Current Time: Mar 29, 2015 at 10:13:19 AM

Latest Report: Mar 29, 2015 at 10:00 AM


Visibility: 9 mi

Pressure: 29.70 "Hg

Humidity: 93%

Dew point: 45 °F

Location of Bornheim (Rheinland)Location

Historic Weather in Bornheim (Rheinland) — Graph

°F

Bornheim (Rheinland) temperature yesterday

Maximum temperature yesterday: 52 °F (at 10:00 PM)
Minimum temperature yesterday: 37 °F (at 2:00 AM)
Average temperature yesterday: 46 °F

Past Weeks' High & Low Weather Summary

 TemperatureHumidityPressure
High60 °F (Mar 17, 1:00 PM)100% (Mar 16, 7:00 AM)30.40 "Hg (Mar 16, 7:00 AM)
Low32 °F (Mar 16, 4:00 AM)46% (Mar 17, 1:00 PM)29.68 "Hg (Mar 25, 4:00 AM)
Average42 °F85%30.11 "Hg
* Reported Mar 14 8:00 AM — Mar 29 9:00 AM, Bornheim (Rheinland), Weather by CustomWeather, © 2015

Note: Actual official high and low records may vary slightly from our data, if they occured in-between our weather recording intervals... More about our weather records

Advertising

Bornheim (Rheinland) weather history for previous 24 hours

 ConditionsComfort  
Time TempWeatherWind HumidityBarometerVisibility
9:00 AM
Sun, Mar 29
47 °FLight rain. Low clouds.10 mph91%29.71 "Hg9 mi
8:00 AM48 °FRain. Passing clouds.7 mph83%29.72 "Hg11 mi
7:00 AM49 °FOvercast.13 mph81%29.74 "Hg25 mi
6:00 AM49 °FOvercast.12 mph82%29.75 "Hg25 mi
5:00 AM50 °FOvercast.10 mph82%29.76 "Hg25 mi
4:00 AM50 °FOvercast.12 mph84%29.76 "Hg31 mi
3:00 AM51 °FPassing clouds.12 mph85%29.77 "Hg34 mi
1:00 AM52 °FPassing clouds.10 mph89%29.79 "Hg19 mi
12:00 AM51 °FRain. Low clouds.12 mph95%29.81 "Hg3 mi
11:00 PM
Sat, Mar 28
51 °FLight freezing rain. Low clouds.12 mph95%29.82 "Hg2 mi
10:00 PM52 °FLow clouds.12 mph91%29.83 "Hg9 mi
9:00 PM50 °FPassing clouds.7 mph93%29.86 "Hg11 mi
8:00 PM50 °FLight freezing rain. Low clouds.10 mph93%29.89 "Hg3 mi
7:00 PM49 °FPassing clouds.12 mph90%29.90 "Hg25 mi
6:00 PM49 °FOvercast.12 mph91%29.90 "Hg22 mi
5:00 PM49 °FLow clouds.10 mph92%29.93 "Hg25 mi
4:00 PM47 °FRain. Low clouds.8 mph95%29.96 "Hg4 mi
3:00 PM47 °FRain. Low clouds.10 mph94%29.98 "Hg4 mi
2:00 PM46 °FLight rain. Overcast.9 mph92%30.00 "Hg6 mi
1:00 PM47 °FLight rain. Overcast.8 mph82%30.02 "Hg19 mi
12:00 PM49 °FOvercast.9 mph74%30.04 "Hg25 mi
11:00 AM48 °FOvercast.9 mph68%30.07 "Hg22 mi
10:00 AM48 °FOvercast.9 mph67%30.10 "Hg22 mi
Weather by CustomWeather, © 2015

See weather overviewHow to use our weather pages